Weather History for Pasco, WA

Change the Weather History Date:

Tuesday, May 8, 2012

  Actual Average Record
Temperature  
Mean Temperature 62 °F 58 °F  
Max Temperature 84 °F 74 °F 96 °F (1994)
Min Temperature 40 °F 43 °F 29 °F (2002)
Degree Days  
Heating Degree Days 3 7  
Month to date heating degree days 84 64  
Since 1 July heating degree days 4866 4888  
Cooling Degree Days 0 0  
Month to date cooling degree days 0 0  
Year to date cooling degree days 11 1  
Growing Degree Days 12 (Base 50)    
Moisture  
Dew Point 41 °F    
Average Humidity 55    
Maximum Humidity 89    
Minimum Humidity 20    
Precipitation  
Precipitation 0.00 in - 0.27 in (1972)
Month to date precipitation 0.02  
Year to date precipitation 3.62  
Snow  
Snow 0.00 in - - ()
Snow Depth 0.00 in    
Sea Level Pressure  
Sea Level Pressure 30.00 in    
Wind  
Wind Speed 4 mph (West)    
Max Wind Speed 15 mph    
Max Gust Speed 20 mph    
Visibility 10 miles    
Events      
T = Trace of Precipitation, MM = Missing Value Source: NWS Daily Summary

Daily Weather History Graph

Daily Weather History Graph

Search for Another Location

Airport:

Trip Planner

Search our weather history database for the weather conditions in past years. The results will help you decide how hot, cold, wet, or windy it might be!

Date:

Astronomy

May. 08, 2012 Rise Set
Actual Time 5:31 AM PDT 8:14 PM PDT
Civil Twilight 4:57 AM PDT 8:49 PM PDT
Nautical Twilight 4:13 AM PDT 9:33 PM PDT
Astronomical Twilight 3:23 AM PDT 10:24 PM PDT
Moon 11:33 PM PDT (5/8) 7:39 AM PDT (5/8)
Length of Visible Light 15h 52m
Length of Day
14h 43m
Waning Gibbous, 90% of the Moon is Illuminated
May 8
Waning Gibbous
May 12
Last Quarter
May 20
New
May 28
First Quarter
Jun 4
Full

Hourly Weather History & Observations

Time (PDT) Temp. Windchill Dew Point Humidity Pressure Visibility Wind Dir Wind Speed Gust Speed Precip Events Conditions
12:53 AM 44.1 °F 42.5 °F 41.0 °F 89% 30.12 in 10.0 mi North 3.5 mph - N/A   Clear
1:53 AM 43.0 °F 40.3 °F 39.9 °F 89% 30.12 in 10.0 mi North 4.6 mph - N/A   Clear
2:53 AM 42.1 °F 40.2 °F 39.0 °F 89% 30.12 in 10.0 mi WNW 3.5 mph - N/A   Clear
3:53 AM 44.1 °F - 39.0 °F 82% 30.11 in 10.0 mi Calm Calm - N/A   Unknown
4:53 AM 43.0 °F - 39.0 °F 86% 30.11 in 10.0 mi Calm Calm - N/A   Clear
5:53 AM 41.0 °F 39.0 °F 37.9 °F 89% 30.11 in 10.0 mi North 3.5 mph - N/A   Clear
6:53 AM 46.0 °F - 42.1 °F 86% 30.11 in 10.0 mi Calm Calm - N/A   Clear
7:53 AM 54.0 °F - 41.0 °F 62% 30.11 in 10.0 mi Calm Calm - N/A   Clear
8:53 AM 59.0 °F - 42.1 °F 53% 30.09 in 10.0 mi Calm Calm - N/A   Clear
9:53 AM 64.0 °F - 43.0 °F 46% 30.09 in 10.0 mi Calm Calm - N/A   Clear
10:53 AM 70.0 °F - 41.0 °F 35% 30.06 in 10.0 mi Variable 3.5 mph - N/A   Clear
11:53 AM 73.9 °F - 41.0 °F 30% 30.03 in 10.0 mi SSE 4.6 mph - N/A   Clear
12:53 PM 75.9 °F - 39.9 °F 27% 30.00 in 10.0 mi Variable 3.5 mph - N/A   Clear
1:53 PM 79.0 °F - 39.9 °F 25% 29.98 in 10.0 mi Variable 3.5 mph - N/A   Clear
2:53 PM 79.0 °F - 39.9 °F 25% 29.94 in 10.0 mi NW 4.6 mph - N/A   Clear
3:53 PM 82.0 °F - 37.9 °F 21% 29.91 in 10.0 mi Variable 4.6 mph - N/A   Clear
4:53 PM 82.0 °F - 37.9 °F 21% 29.90 in 10.0 mi South 5.8 mph - N/A   Clear
5:53 PM 82.9 °F - 37.9 °F 20% 29.88 in 10.0 mi SSW 8.1 mph - N/A   Clear
6:53 PM 80.1 °F - 39.0 °F 23% 29.87 in 10.0 mi SW 8.1 mph - N/A   Clear
7:53 PM 79.0 °F - 39.0 °F 24% 29.86 in 10.0 mi SSW 9.2 mph - N/A   Clear
8:53 PM 73.9 °F - 39.9 °F 29% 29.87 in 10.0 mi SSW 15.0 mph - N/A   Clear
9:48 PM 68.0 °F - 44.6 °F 43% 29.89 in 10.0 mi WNW 10.4 mph - N/A   Clear
9:53 PM 66.9 °F - 44.1 °F 44% 29.89 in 10.0 mi WNW 10.4 mph - N/A   Clear
10:53 PM 64.0 °F - 43.0 °F 46% 29.91 in 10.0 mi WNW 9.2 mph - N/A   Clear
11:53 PM 54.0 °F - 45.0 °F 72% 29.93 in 10.0 mi NW 9.2 mph - N/A   Clear